STARLINK-1524, 46047

Orbit data source: Space-Track

STARLINK-1524, 46047 is a payload satellite owned by SpaceX/Seattle (US) in LEO that was launched on Fri, 07 Aug 2020 UTC via an FALCON 9 launch vehicle from the Air Force Eastern Test Range (AFETR). Payload-class satellites include a variety of spacecraft equipped with specific instruments for various scientific and technological missions. These include communications satellites like Starlink; space stations such as the ISS; scientific satellites like the Hubble; Earth observation satellites from companies like Planet Labs, Umbra, and HawkEye 360; GPS; miniature CubeSats for education and research; and military/defense satellites.

Loading next visibility...
Identifier
46047, 2020-055W
Orbit
LEO
Country
Flag of USUS
Related business
Manufacturer
SpaceX/Seattle
Mission
Operational Commercial Communications
Bus & Motor
STARLINK, Unknown motor
Mass
260 kg wet, ~248 kg dry
Launch date (UTC)
2020-08-07 (6 years ago)
Launch vehicle
FALCON 9
Launch site
Air Force Eastern Test Range (AFETR)
Object type
Payload
Rocket body
Debris
Shape & HBR
Box + 1 Pan, 10.1 m
Radar Cross Section
13.562 m², Large (>1 m²)

Expand to show TLE details & history
Last TLE update: 5 hours ago

TLE from 5 hours ago
0 STARLINK-1524
1 46047U 20055W   26263.60604868  .00006221  00000-0  21201-3 0  9990
2 46047  53.1605 286.9108 0001272  79.3429 280.7716 15.31709411338932
Epoch: 2026-09-20T14:32Z
TLE epoch observation values (Epoch: 2026-09-20T14:32:42.605Z)
Latitude
-0.00001°
Longitude
69.23545°
Altitude
471.45 km
Speed
7.632 km/s
True Right ascension
19h 07m 38s
True Declination
0° 00' 00"
Sunlit
Object was in daylight at epoch
Visualization orbit readout
Latitude
Unknown
Longitude
Unknown
Altitude
Unknown
Speed
Unknown
Apparent Right ascension
Unknown
Apparent Declination
Unknown
Sunlit
N/A
Visualization observer readout
Local Sidereal Time
12:12:45
Azimuth
Unknown
Elevation
Unknown
Doppler factor
Unknown
Orbital elements
Apogee altitude
471.84 km
Perigee altitude
470.097 km
Semi-major axis
6,849.105 km
Eccentricity
0.00013
Inclination
53.1605°
RAAN
286.9108°
Arg. of periapsis
79.3429°
True anomaly
280.75728°
Mean anomaly
280.7716°
Eccentric anomaly
280.76444°
Mean motion
3.82906 °/min
Orbital period
94.02 mins
BSTAR
0.00021201
Loading maneuver chart data...
Computing Atmospheric mass density...

Documentation

Showing up to 5 results
|